CAPE
0 0 0 0 0 0 0 0 0 0 0 0 0 1 1 0 1 0 1 0 0 0 0 0 0 0 0 0 0 0 0 0 0 1 0 0 0 0 0 0 0 0 0
0 0 0 0 0 0 0 0 0 0 0 0 0 0 0 0 0 0 0 0 0 1 0 0 0 0 0 0 0 0 0 0 0 0 0 0 0 0 0 0 0 0 0
0 0 0 0 0 0 0 0 0 0 0 0 0 0 0 0 0 0 0 0 0 0 0 0 0 2 0 0 0 0 0 0 0 0 1 0 0 0 0 0 0 0 0
0 0 0 0 0 0 0 0 0 0 0 0 0 0 0 0 0 0 0 0 0 0 0 0 0 0 0 0 0 0 0 0 0 1 1 1 0 0 0 0 0 0 0
0 0 0 0 0 0 0 0 0 0 0 0 0 0 0 0 0 0 0 0 0 0 0 0 0 0 0 0 0 0 0 0 1 0 2 1 1 0 0 0 0 0 0
0 0 0 0 0 0 0 0 0 0 0 0 0 0 0 0 0 0 0 0 0 0 0 0 0 0 0 0 0 1 1 1 1 2 1 1 1 2 0 0 1 5 3
0 0 0 0 0 0 0 0 0 0 0 0 0 0 0 0 0 0 0 0 0 0 0 0 0 0 0 0 0 0 0 0 2 1 2 0 0 0 0 0 4 7 3
0 0 0 0 0 0 0 0 0 0 0 0 0 0 0 0 0 0 0 0 0 0 0 0 0 0 0 0 0 0 0 0 0 0 0 0 0 0 0 0 0 0 0
0 0 0 0 0 0 0 0 0 0 0 0 0 0 0 0 0 0 0 0 0 0 0 0 0 0 0 1 0 0 0 0 0 1 5 7 6 8 13 13 4 2 0
0 0 0 0 0 0 0 0 0 0 0 0 0 0 0 0 0 0 0 0 0 0 0 0 0 0 1 2 2 0 0 0 0 0 0 1 6 1 1 2 0 0 2
0 0 0 0 0 0 0 0 0 0 0 0 0 0 0 0 0 0 0 0 0 0 0 0 0 0 2 1 2 0 0 6 7 3 0 0 0 3 5 0 0 0 0
0 0 0 0 0 0 0 0 0 0 0 0 0 0 0 0 0 0 0 1 0 0 0 1 1 2 6 0 0 1 5 6 0 0 0 1 0 1 8 8 3 0 0
0 0 0 0 0 0 0 0 0 0 0 0 0 0 0 0 0 0 0 0 0 0 0 0 1 3 5 2 2 1 0 0 0 0 0 0 0 0 2 1 0 1 0
0 0 0 0 0 0 0 0 0 0 0 0 0 0 0 0 0 0 0 0 0 0 0 0 0 0 0 0 0 0 0 2 0 0 3 0 0 0 0 0 1 0 0
0 0 0 0 0 0 0 0 0 0 0 0 0 0 1 0 0 0 1 0 0 1 0 0 0 0 0 0 0 0 0 3 1 0 0 0 0 0 0 0 0 0 0
0 0 0 0 0 0 0 0 0 0 0 0 0 0 0 0 0 1 1 0 1 1 0 0 0 0 0 1 0 0 0 0 0 0 0 0 0 0 0 0 0 0 0
0 0 0 0 0 0 0 0 0 0 0 0 0 0 0 0 1 0 1 1 0 0 0 0 0 0 0 2 2 3 1 0 0 0 0 0 0 0 0 0 0 0 0
0 0 0 0 0 0 0 0 0 0 0 0 0 0 0 0 0 0 0 0 0 0 0 0 0 1 1 2 1 0 1 0 0 0 0 0 0 0 0 0 0 0 0
0 0 0 0 0 0 0 0 0 0 0 0 0 0 0 0 0 0 0 0 0 0 0 0 0 0 0 0 0 0 1 0 1 0 0 0 0 0 0 0 0 0 0
0 0 0 0 0 0 0 0 0 0 0 0 0 0 0 0 0 0 0 0 0 0 0 0 0 0 0 0 0 0 0 0 0 0 0 0 0 0 0 0 0 0 0
0 0 0 0 0 0 0 0 0 0 0 0 0 0 0 0 0 0 0 0 0 0 0 0 0 0 0 0 0 0 0 0 0 0 0 0 0 0 0 0 0 0 0
0 0 0 0 0 0 0 0 0 0 0 0 0 0 0 0 0 0 0 0 0 0 0 0 0 0 0 0 0 0 0 0 0 0 0 0 0 0 0 0 0 0 0
0 0 0 0 0 0 0 0 0 0 0 0 0 0 0 0 0 0 0 0 0 0 0 0 0 0 0 0 0 0 0 0 0 0 0 0 0 0 0 0 0 0 0
0 0 0 0 0 0 0 0 0 0 0 0 0 0 0 0 0 0 0 0 0 0 0 0 0 0 0 0 0 0 0 0 0 0 0 0 0 0 0 0 0 0 0
0 0 0 0 0 0 0 0 0 0 0 0 0 0 0 0 0 0 0 0 0 0 0 0 0 0 0 0 0 0 0 0 0 0 0 0 0 0 0 0 0 0 0
0 0 0 0 0 0 0 0 0 0 0 0 0 0 0 0 0 0 0 0 0 0 0 0 0 0 0 0 0 0 0 0 0 0 0 0 0 0 0 0 0 0 0
CIN
-0 -0 -0 -0 -0 -0 -0 -0 -0 -0 -0 -0 -0 -0 -0 -0 -0 -0 -0 -0 -0 -0 -0 -0 -0 -0 -0 -0 -0 -0 -0 -0 -0 -0 -0 -0 -0 -0 -0 -0 -0 -0 -0
-0 -0 -0 -0 -0 -0 -0 -0 -0 -0 -0 -0 -0 -0 -0 -0 -0 -0 -0 -0 -0 -0 -0 -0 -0 -0 -0 -0 -0 -0 -0 -0 -0 -0 -0 -0 -0 -0 -0 -0 -0 -0 -0
-0 -0 -0 -0 -0 -0 -0 -0 -0 -0 -0 -0 -0 -0 -0 -0 -0 -0 -0 -0 -0 -0 -0 -0 -0 -0 -0 -0 -0 -0 -0 -0 -0 -0 -0 -2 -1 -1 -2 -0 -0 -0 -0
-0 -0 -0 -0 -0 -0 -0 -0 -0 -0 -0 -0 -0 -0 -0 -0 -0 -0 -0 -0 -0 -0 -0 -0 -0 -0 -0 -0 -0 -0 -0 -0 -0 -2 -2 -0 -0 -0 -0 -0 -0 -0 -0
-0 -0 -0 -0 -0 -0 -0 -0 -0 -0 -0 -0 -0 -0 -0 -0 -0 -0 -0 -0 -0 -0 -0 -0 -0 -0 -0 -0 -0 -0 -0 -0 -1 -2 -1 -0 -0 -0 -0 -0 -0 -0 -0
-0 -0 -0 -0 -0 -0 -0 -0 -0 -0 -0 -0 -0 -0 -0 -0 -0 -0 -0 -0 -0 -0 -0 -0 -0 -0 -0 -0 -0 -0 -0 -0 -0 -0 -0 -0 -0 -0 -0 -0 -0 -0 -0
-0 -0 -0 -0 -0 -0 -0 -0 -0 -0 -0 -0 -0 -0 -0 -0 -0 -0 -0 -0 -0 -0 -0 -0 -0 -0 -0 -0 -0 -0 -0 -0 -0 -0 -0 -0 -0 -0 -0 -0 -0 -0 -0
-0 -0 -0 -0 -0 -0 -0 -0 -0 -0 -0 -0 -0 -0 -0 -0 -0 -0 -0 -0 -0 -0 -0 -0 -0 -0 -0 -0 -0 -0 -0 -0 -0 -0 -1 -0 -0 -1 -0 -1 -0 -0 -0
-0 -0 -0 -0 -0 -0 -0 -0 -0 -0 -0 -0 -0 -0 -0 -0 -0 -0 -0 -0 -0 -0 -0 -0 -0 -0 -0 -0 -1 -0 -0 -0 -0 -1 -1 -2 -3 -3 -0 -0 -0 -2 -0
-0 -0 -0 -0 -0 -0 -0 -0 -0 -0 -0 -0 -0 -0 -0 -0 -0 -0 -0 -0 -0 -0 -0 -0 -0 -0 -0 -1 -2 -2 -0 -0 -1 -2 -2 -1 -0 -3 -3 -0 -0 -0 -0
-0 -0 -0 -0 -0 -0 -0 -0 -0 -0 -0 -0 -0 -0 -0 -0 -0 -0 -0 -0 -0 -0 -0 -0 -0 -0 -1 -0 -1 -1 -0 -1 -0 -1 -0 -1 -1 -0 -0 -0 -0 -0 -0
-0 -0 -0 -0 -0 -0 -0 -0 -0 -0 -0 -0 -0 -0 -0 -0 -0 -0 -1 -1 -0 -0 -0 -0 -0 -0 -0 -0 -0 -0 -0 -1 -0 -0 -0 -1 -0 -1 -0 -3 -5 -0 -0
-0 -0 -0 -0 -0 -0 -0 -0 -0 -0 -0 -0 -0 -0 -0 -0 -0 -0 -0 -0 -0 -0 -0 -0 -1 -0 -0 -1 -1 -0 -4 -0 -0 -0 -1 -0 -0 -0 -0 -0 -1 -1 -0
-0 -0 -0 -0 -0 -0 -0 -0 -0 -0 -0 -0 -0 -0 -0 -0 -0 -0 -0 -0 -0 -0 -0 -0 -0 -0 -0 -0 -0 -0 -0 -8 -0 -7 -3 -2 -0 -0 -0 -0 -0 -0 -0
-0 -0 -0 -0 -0 -0 -0 -0 -0 -0 -0 -0 -0 -0 -0 -0 -0 -1 -1 -1 -0 -1 -1 -0 -0 -0 -0 -0 -0 -0 -0 -6 -4 -0 -0 -0 -0 -0 -0 -0 -4 -0 -0
-0 -0 -0 -0 -0 -0 -0 -0 -0 -0 -0 -0 -0 -0 -1 -1 -1 -1 -2 -2 -0 -1 -0 -0 -1 -0 -0 -0 -0 -0 -0 -0 -0 -0 -0 -0 -0 -0 -0 -0 -0 -0 -0
-0 -0 -0 -0 -0 -0 -0 -0 -0 -0 -0 -0 -0 -0 -0 -0 -0 -1 -1 -0 -0 -0 -0 -0 -0 -0 -0 -0 -0 -1 -0 -0 -0 -0 -0 -0 -0 -0 -0 -0 -0 -0 -0
-0 -0 -0 -0 -0 -0 -0 -0 -0 -0 -0 -0 -0 -0 -0 -0 -0 -0 -0 -0 -0 -0 -0 -0 -0 -0 -0 -0 -0 -0 -0 -0 -0 -0 -0 -0 -0 -0 -0 -0 -0 -0 -0
-0 -0 -0 -0 -0 -0 -0 -0 -0 -0 -0 -0 -0 -0 -0 -0 -0 -0 -0 -0 -0 -0 -0 -0 -0 -0 -0 -0 -0 -0 -0 -0 -0 -0 -0 -0 -0 -0 -0 -0 -0 -0 -0
-0 -0 -0 -0 -0 -0 -0 -0 -0 -0 -0 -0 -0 -0 -0 -0 -0 -0 -0 -0 -0 -0 -0 -0 -0 -0 -0 -0 -0 -0 -0 -0 -0 -0 -0 -0 -0 -0 -0 -0 -0 -0 -0
-0 -0 -0 -0 -0 -0 -0 -0 -0 -0 -0 -0 -0 -0 -0 -0 -0 -0 -0 -0 -0 -0 -0 -0 -0 -0 -0 -0 -0 -0 -0 -0 -0 -0 -0 -0 -0 -0 -0 -0 -0 -0 -0
-0 -0 -0 -0 -0 -0 -0 -0 -0 -0 -0 -0 -0 -0 -0 -0 -0 -0 -0 -0 -0 -0 -0 -0 -0 -0 -0 -0 -0 -0 -0 -0 -0 -0 -0 -0 -0 -0 -0 -0 -0 -0 -0
-0 -0 -0 -0 -0 -0 -0 -0 -0 -0 -0 -0 -0 -0 -0 -0 -0 -0 -0 -0 -0 -0 -0 -0 -0 -0 -0 -0 -0 -0 -0 -0 -0 -0 -0 -0 -0 -0 -0 -0 -0 -0 -0
-0 -0 -0 -0 -0 -0 -0 -0 -0 -0 -0 -0 -0 -0 -0 -0 -0 -0 -0 -0 -0 -0 -0 -0 -0 -0 -0 -0 -0 -0 -0 -0 -0 -0 -0 -0 -0 -0 -0 -0 -0 -0 -0
-0 -0 -0 -0 -0 -0 -0 -0 -0 -0 -0 -0 -0 -0 -0 -0 -0 -0 -0 -0 -0 -0 -0 -0 -0 -0 -0 -0 -0 -0 -0 -0 -0 -0 -0 -0 -0 -0 -0 -0 -0 -0 -0
-0 -0 -0 -0 -0 -0 -0 -0 -0 -0 -0 -0 -0 -0 -0 -0 -0 -0 -0 -0 -0 -0 -0 -0 -0 -0 -0 -0 -0 -0 -0 -0 -0 -0 -0 -0 -0 -0 -0 -0 -0 -0 -0
Wind_Speed
15 14 14 15 15 15 16 16 17 17 18 18 18 18 18 20 20 22 23 23 24 25 25 26 28 28 29 29 29 30 31 32 38 43 40 39 38 37 36 34 33 34 35
14 14 14 14 15 16 16 16 16 17 18 18 19 20 21 21 22 23 24 26 28 29 30 30 31 31 32 32 32 32 33 33 38 48 45 44 42 41 40 38 37 36 36
13 13 13 14 15 16 16 17 17 18 19 19 20 21 22 24 25 26 27 27 28 30 31 32 34 34 35 35 35 36 37 37 37 42 50 46 46 44 45 43 42 41 40
12 13 14 14 14 15 16 17 18 19 20 21 22 23 25 26 27 28 29 30 31 32 33 34 35 36 37 38 38 38 39 40 42 45 48 51 48 48 46 50 52 46 47
13 14 14 14 14 15 16 18 20 21 23 23 25 26 27 29 30 32 33 34 35 36 36 37 37 36 37 38 39 40 41 43 45 48 52 53 53 52 53 52 54 53 52
14 14 15 15 15 17 18 20 22 23 25 27 28 30 31 32 33 34 36 37 38 40 42 41 39 39 40 40 40 41 42 45 47 49 53 54 57 54 53 54 55 57 60
14 14 15 16 17 19 20 22 23 26 27 29 30 32 33 33 35 37 38 39 41 41 42 43 44 43 43 44 44 44 44 43 44 47 54 54 57 54 55 57 56 56 57
15 15 16 17 18 20 21 23 25 27 29 31 33 33 34 35 37 39 41 41 42 43 44 45 46 46 45 46 47 48 48 46 45 45 47 52 52 52 52 54 57 57 56
16 17 18 18 19 20 23 25 27 29 32 35 35 35 36 38 39 41 43 43 45 45 44 43 44 46 46 47 49 51 52 51 47 47 49 50 52 53 52 54 55 55 57
17 17 18 18 19 22 24 27 30 33 35 33 34 35 36 39 40 41 43 43 46 46 46 45 45 46 47 47 50 53 58 57 54 54 52 53 53 52 49 46 48 50 51
15 16 18 19 21 24 26 30 32 32 32 33 35 36 37 38 40 42 43 44 46 48 49 49 48 48 50 51 52 52 54 54 55 54 54 55 53 50 47 42 41 41 45
15 17 19 22 25 28 28 30 30 32 33 35 37 38 38 39 41 42 44 45 48 50 52 50 51 52 54 54 53 52 51 51 50 51 52 53 52 51 48 42 40 37 38
18 21 23 24 24 25 27 28 31 32 35 37 39 41 43 42 42 43 45 48 49 51 50 52 54 54 54 53 51 51 50 47 45 47 49 51 49 47 45 43 40 37 35
21 22 21 21 24 25 26 29 31 33 36 38 41 43 44 45 46 46 47 49 50 50 51 51 51 53 51 50 50 47 44 42 42 45 47 46 44 43 42 39 39 35 33
17 18 20 22 25 26 28 29 31 32 35 39 41 42 46 48 47 49 51 52 52 52 54 51 51 50 51 49 48 46 43 41 43 43 43 42 42 40 37 36 32 31 30
17 19 21 23 25 27 29 31 31 33 35 36 38 41 43 44 48 50 51 51 52 52 50 48 49 48 49 49 49 46 43 42 42 40 38 38 37 35 33 31 29 29 29
17 20 22 24 26 28 30 32 35 34 35 36 39 41 42 46 47 49 49 49 47 47 47 47 47 47 48 47 47 43 43 42 39 37 36 34 33 31 30 29 26 26 26
20 22 23 25 27 28 30 32 34 37 39 40 39 41 42 44 47 47 48 46 46 44 44 45 45 45 44 44 44 44 43 41 37 35 34 33 32 32 30 29 24 23 23
21 23 24 26 27 28 29 31 33 36 38 39 40 40 42 43 45 45 45 45 46 45 44 43 42 42 42 42 41 41 41 40 41 36 33 32 32 32 30 28 25 23 21
21 22 24 25 26 27 29 31 33 35 36 38 40 42 43 43 46 46 44 44 43 42 41 41 40 39 39 40 40 40 40 40 39 38 37 34 34 32 31 28 25 23 20
20 21 22 24 25 27 29 31 32 33 35 37 39 40 42 44 45 44 44 43 42 41 40 39 39 38 39 39 39 40 39 39 39 38 37 37 36 35 32 29 26 22 20
20 22 23 24 26 27 29 30 31 33 35 37 39 40 41 41 42 43 42 40 39 38 37 36 37 38 39 39 39 38 38 39 39 39 38 37 35 34 32 30 26 22 20
21 22 24 24 26 28 30 30 32 34 36 37 39 40 40 41 41 41 39 38 36 36 36 37 37 37 36 37 37 37 38 38 39 38 38 37 36 35 34 32 29 25 20
22 23 23 25 26 28 30 32 33 35 36 38 39 40 40 40 40 39 36 34 34 35 35 36 35 36 37 36 36 36 36 37 38 37 38 37 36 35 34 33 31 30 26
21 22 23 25 27 29 30 32 34 35 38 39 40 40 39 38 39 37 33 32 34 35 35 35 35 35 36 37 37 36 38 38 39 36 36 36 36 35 34 33 33 31 29
22 23 24 26 27 29 32 34 36 37 38 38 38 38 39 39 37 34 33 33 35 34 34 34 34 35 37 36 36 37 38 38 38 37 36 36 36 35 34 34 33 31 30
Wind_Direction
324 324 322 321 322 324 323 321 320 322 324 324 325 325 324 321 320 317 316 316 315 315 316 316 316 317 316 315 315 314 312 311 309 312 315 318 318 317 317 315 315 314 315
326 328 327 330 331 329 329 332 333 333 333 335 334 332 329 327 325 322 319 317 316 316 316 316 316 316 315 315 315 314 312 311 310 310 314 316 316 317 316 315 314 313 312
328 331 334 333 332 332 334 336 337 336 336 340 338 335 331 328 324 322 321 320 319 319 318 318 317 317 316 316 316 314 314 313 311 310 311 315 315 317 315 314 312 312 310
327 331 331 331 334 336 339 340 339 338 338 339 339 336 332 329 325 323 322 320 319 319 319 319 318 318 317 317 317 316 316 314 313 311 311 313 314 316 314 313 311 311 309
317 322 325 329 333 336 336 335 335 335 336 337 334 331 329 326 323 321 320 319 318 317 317 317 318 318 318 318 317 316 315 314 313 311 310 311 312 314 312 313 310 311 308
311 316 320 325 328 328 328 329 330 332 333 331 330 328 325 324 323 322 320 318 317 316 315 317 318 318 318 317 316 316 314 313 312 311 310 310 310 312 312 311 310 310 308
307 312 316 318 321 323 325 327 329 330 329 328 328 327 325 324 324 322 321 319 318 317 318 318 317 318 318 318 318 317 316 315 313 312 309 309 310 312 312 310 309 307 306
302 307 311 313 316 320 324 326 326 326 325 325 325 325 325 325 323 322 321 320 319 318 318 318 317 318 319 319 318 317 316 316 315 313 310 310 310 311 310 308 307 306 305
296 302 308 313 316 319 321 321 323 323 322 321 323 323 323 324 325 325 324 322 320 320 321 321 321 320 320 319 317 316 316 316 316 314 312 310 309 309 308 309 308 307 306
295 302 309 313 316 318 320 321 320 319 319 321 324 325 326 325 326 326 326 325 323 322 322 322 322 321 321 320 319 317 314 315 316 315 314 314 314 311 310 308 308 307 307
298 304 310 315 316 319 319 319 319 321 322 324 325 326 327 329 329 328 327 326 324 323 322 322 322 322 321 319 318 316 314 315 315 315 315 316 317 317 315 312 309 307 308
298 305 310 313 315 317 317 318 319 322 323 324 325 325 327 329 330 329 329 328 326 323 321 322 322 321 320 319 319 317 316 316 315 316 317 318 319 320 320 317 314 310 308
300 305 310 313 316 318 319 319 320 323 322 322 323 324 325 329 330 330 330 328 327 325 324 322 322 322 321 321 320 319 318 317 317 317 318 319 320 321 320 319 319 316 313
300 304 311 313 315 318 320 321 321 322 322 324 325 325 326 327 328 330 330 330 329 327 326 325 324 323 323 322 322 323 321 320 319 320 320 321 322 323 323 323 322 322 321
301 307 310 312 314 316 318 321 322 323 325 326 327 328 327 326 328 329 329 328 328 327 326 325 326 326 326 327 327 326 326 325 323 324 324 325 326 326 326 328 329 328 326
300 304 308 311 314 317 319 320 325 327 329 331 332 331 330 331 331 331 331 331 331 331 331 330 329 330 329 330 328 328 329 329 329 329 329 330 330 331 332 334 336 336 332
303 306 310 312 314 317 319 322 324 330 333 334 334 335 335 335 335 334 334 335 336 337 335 334 334 333 332 332 332 332 331 332 332 332 333 334 335 336 337 337 342 341 340
304 307 308 311 316 319 323 325 326 328 330 333 338 338 339 339 339 339 338 338 337 340 340 338 336 337 337 336 335 333 333 333 334 334 334 335 335 332 335 335 345 348 349
306 310 313 316 319 322 326 328 330 331 332 334 336 339 340 341 341 342 342 341 339 338 338 339 339 339 339 339 338 337 335 333 332 333 335 335 330 331 330 333 339 344 349
309 314 317 320 323 326 329 331 332 333 334 334 335 336 338 340 340 341 342 341 341 340 340 340 340 340 340 339 339 338 335 333 331 331 331 330 322 327 327 331 334 338 342
312 316 320 323 325 328 330 331 332 333 333 334 335 337 338 338 338 338 339 340 341 341 341 341 341 339 337 337 337 337 334 333 328 329 327 322 320 318 323 328 331 339 344
313 316 319 321 324 327 328 330 331 332 332 333 334 336 337 337 337 338 338 339 340 341 341 341 340 339 338 335 333 334 334 331 328 326 322 321 322 324 322 326 334 338 338
311 314 317 319 322 325 327 329 330 331 331 332 333 334 336 337 337 337 338 339 339 339 339 337 336 336 338 339 334 332 331 328 325 325 321 318 320 319 319 322 328 329 336
309 313 315 317 320 323 325 327 328 329 331 331 333 334 334 336 336 337 338 338 339 337 336 336 337 336 335 336 337 332 330 326 322 326 324 322 319 319 320 319 317 317 322
308 311 313 316 319 321 323 325 326 329 328 329 330 331 334 335 334 335 337 337 336 336 336 336 337 338 336 334 334 332 326 323 321 326 327 324 321 320 319 318 317 317 316
306 310 313 315 317 320 321 323 324 326 327 329 330 331 331 332 333 333 333 333 332 333 334 334 335 334 334 335 335 333 329 325 321 322 326 326 322 321 321 320 318 317 315